Погода в Бору

Россия / Пермский край     57°03′35″N   57°33′44″E
темп.,
°C
ветер,
м/с
пор.,
м/с
влажн.,
%
обл.,
%
осадки,
мм/ч
давл.,
гПа
погр.,
м
20 июня, вс
вс2023:00+18з7168619 2.1 1011414
02:00+17з6158898 0.4 1010379
05:00+16зсз513921 0.6 1012397
08:00+17сз713765 0.0 10141106
11:00+17ссз811474 0.0 10161329
14:00+18ссз812410 0.0 10171619
17:00+19ссз712460 0.0 10181885
20:00+16ссз612520 0.0 1019566
21 июня, пн
пн2123:00+11ссз34605 0.0 102157
02:00+12ссз245223 0.0 102287
05:00+9сз22645 0.0 102419
08:00+13ссз23555 0.0 1024285
11:00+17ссз344520 0.0 1024915
14:00+20зсз334493 0.0 10231153
17:00+19ююз2558100 0.0 1021510
20:00+19юз5107123 0.1 1019566
22 июня, вт
вт2223:00+15юз41091100 0.7 1019208
02:00+14зюз349617 0.0 101867
05:00+14зюз229513 0.0 101824
08:00+20зсз468551 0.0 1018306
11:00+25зсз79655 0.2 1017971
14:00+28сз710515 0.1 10162024
17:00+29ссз5105356 0.1 10162741
20:00+24ссз347037 0.1 101674
23 июня, ср
ср2323:00+19зсз22820 0.2 101611
02:00+17сз228513 0.0 101713
05:00+15с118663 0.0 101711
08:00+17в238297 0.1 1017189
11:00+21вюв3371100 0.1 1018574
14:00+22вюв326463 0.1 1018918
17:00+19вюв557261 0.1 1019380
20:00+19в357681 0.0 1019462
24 июня, чт
чт2423:00+14юв3588100 0.0 101983
02:00+12юв369191 0.0 1020102
05:00+11вюв23841 0.0 102138
08:00+16вюв35611 0.0 1021279
11:00+20юв45445 0.0 10211195
14:00+22ююв23380 0.0 10211728
17:00+23ююз12370 0.0 10211654
20:00+21зюз22560 0.0 102017